User: anonymous   Login
Location: *
(51.1248°S, 108.4023°W)
Time: 02:45:10
(UTC+00:00)
Language:

CZ-4B R/B - Orbit

View from above orbital plane
View from above orbital plane
View from above satellite
View from above satellite

Ground track
Ground track

The orbit data is extracted from the following two-line orbital elements,

1 27432U 02024C   21264.29952718 -.00000019  00000-0  14078-4 0  9999
2 27432  99.0843 280.2965 0049730 317.2598  52.8213 14.14114076998784
Epoch (UTC): 21 September 2021 07:11:19
Eccentricity: 0.0049730
inclination: 99.0843°
perigee height: 809 km
apogee height: 881 km
right ascension of ascending node: 280.2965°
argument of perigee: 317.2598°
revolutions per day: 14.14114076
mean anomaly at epoch: 52.8213°
orbit number at epoch: 99878

The dashed part of the orbit path shows where the satellite is in the earth's shadow,  

DLR